Regional Weather Roundup
Issued by NWS

Home | Current Version | Previous Version | Graphics & Text | Print | Product List | Glossary On
Versions: 1 2 3 4 5 6 7 8 9 10 11 12 13 14 15 16 17 18 19 20 21 22 23 24 25 26 27 28 29 30 31 32 33 34 35 36 37 38 39 40 41 42 43 44 45 46 47 48 49 50
760
ASUS45 KBOU 130710
RWRCO

WEATHER ROUNDUP FOR COLORADO
NATIONAL WEATHER SERVICE DENVER/BOULDER CO
1200 AM MST WED DEC 13 2017

NOTE: "FAIR" INDICATES FEW OR NO CLOUDS BELOW 12000 FEET WITH NO
SIGNIFICANT WEATHER AND/OR OBSTRUCTIONS TO VISIBILITY.

COZ001>005-013-030-031-130800-
...NORTHWEST COLORADO...

CITY           SKY/WX    TMP DP  RH WIND       PRES   REMARKS
CRAIG          FAIR      13   9  84 CALM      30.30F
HAYDEN         FAIR      24  15  68 E9        30.30F WCI  14
MEEKER         FAIR      20   9  62 NE3       30.31F
RABBIT EARS PA FAIR      28   9  43 W7        30.35F WCI  21
STEAMBOAT SPGS FAIR      21  13  70 CALM      30.30F
WALDEN         FAIR      19   7  58 SE10      30.27F WCI   8
$$

COZ006>008-011-130800-
...WEST CENTRAL VALLEYS...

CITY           SKY/WX    TMP DP  RH WIND       PRES   REMARKS
GRAND JUNCTION FAIR      28   9  44 E3        30.30F
MONTROSE       FAIR      23   8  52 S10       30.34F WCI  12
EAGLE          FAIR      15  10  80 CALM      30.38S
RIFLE          FAIR      22  10  60 CALM      30.33F
DELTA          FAIR      28   8  42 CALM      30.33F
NUCLA          FAIR      30   9  40 E9        30.35S WCI  22
$$

COZ017>023-064>068-130800-
...SOUTHWEST COLORADO...

CITY           SKY/WX    TMP DP  RH WIND       PRES   REMARKS
DURANGO        FAIR      16  -2  45 CALM      30.28F
CORTEZ         FAIR      16   3  56 NE8       30.29F WCI   5
PAGOSA SPRINGS FAIR      22   1  40 CALM      30.30F
TELLURIDE      FAIR      29   8  40 SE7       30.38F WCI  22
WOLF CREEK PAS FAIR      30   0  27 CALM      30.47F
$$

COZ009-010-012-014-032>034-037-058>063-130800-
...CENTRAL COLORADO...

CITY           SKY/WX    TMP DP  RH WIND       PRES   REMARKS
ASPEN          FAIR      24  11  57 S8        30.33F WCI  15
BUENA VISTA    FAIR      30   9  41 CALM      30.29S
COPPER MTN     NOT AVBL
BERTHOUD PASS  FAIR      21  10  63 NW39G48   30.32F WCI   1
COTTONWOOD PAS FAIR      43   0  16 W13G24    30.33S
GUNNISON       FAIR       8   3  80 CALM      30.38F
KREMMLING      FAIR      10   5  79 CALM      30.36F
LEADVILLE      FAIR      16   4  59 NE7       30.34F WCI   6
MONARCH PASS   FAIR      27   5  39 W26G32    30.48F WCI  11
SALIDA         FAIR      30  10  43 SW6       30.35F WCI  24
SUNLIGHT       FAIR      30   3  31 W9        30.44S WCI  22
WILKERSON PASS FAIR      32  -6  19 W3        30.37F
$$

COZ069>075-130800-
...SAN LUIS VALLEY/SANGRE DE CRISTO MOUNTAINS...

CITY           SKY/WX    TMP DP  RH WIND       PRES   REMARKS
ALAMOSA        FAIR       9  -3  58 SW5       30.30S WCI   1
DEL NORTE      FAIR      23   1  38 W6        30.31F WCI  15
LA VETA PASS   FAIR      30   5  34 SW26        N/A  WCI  16
SAGUACHE       FAIR      30   9  40 NW17      30.30F WCI  18
$$

COZ035-036-038>040-130800-
...NORTHERN COLORADO FRONT RANGE...

CITY           SKY/WX    TMP DP  RH WIND       PRES   REMARKS
DENVER INTL AP FAIR      39   9  29 SW12      30.07F
DMNS CITY PARK NOT AVBL
AURORA         CLEAR     41   9  26 SW8       30.09F
FRONT RANGE AP FAIR      46   9  22 SW12      30.08F
ERIE MUNI ARPT FAIR      39   4  23 W9        30.11F
BOULDER MUN AP FAIR      55   9  15 S7        30.05F
CENTENNIAL     FAIR      41   8  25 W9        30.09F
BROOMFIELD     FAIR      55   7  14 NW23G33   30.07F
FORT COLLINS   FAIR      42  10  27 VRB3      30.04F
LONGMONT       FAIR      42   9  26 CALM      30.07F
$$

COZ041-046-047-076>085-087-088-130800-
...PIKES PEAK/PALMER DIVIDE AND SOUTHERN FOOTHILLS...

CITY           SKY/WX    TMP DP  RH WIND       PRES   REMARKS
COLO. SPRINGS  FAIR      36  11  35 N9        30.12F
A. F. ACADEMY  FAIR      32   7  34 N6        30.13F WCI  26
SCHRIEVER AFB  FAIR      47   8  20 N8        30.12F
CHEYENNE MTN   FAIR      48   4  16 CALM      30.09F
ELLICOTT         N/A    N/A N/A N/A CALM      30.10F
FALCON         FAIR      40   6  24 NW10      30.15F
FORT CARSON    FAIR      39  12  32 NW10      30.09F
LIMON          FAIR      32  12  43 NW10      30.07F WCI  24
MONUMENT HILL  FAIR      34  10  37 SW10      30.16F WCI  26
CANON CITY     FAIR      48  14  25 W14       30.13S
WALSENBURG     FAIR      48   7  18 W15       30.14F
TRINIDAD       FAIR      33  13  43 W12       30.13F WCI  24
$$

COZ042>045-048>051-090-091-130800-
...NORTHEAST COLORADO...

CITY           SKY/WX    TMP DP  RH WIND       PRES   REMARKS
GREELEY ARPT   FAIR      28  13  53 CALM      30.04F
AKRON          FAIR      39  11  31 MISG      30.01F
BURLINGTON     FAIR      38  17  42 W9        29.99F
WRAY           FAIR      37  18  44 W14       29.98F
YUMA           FAIR      36  14  41 W10       30.00S
STERLING       FAIR      43  10  26 CALM      30.00S
HOLYOKE        FAIR      43  12  28 W14       29.97F
FORT MORGAN    FAIR      41   8  25 W14       30.03F
$$

COZ086-089-092>099-130800-
...SOUTHEAST COLORADO...

CITY           SKY/WX    TMP DP  RH WIND       PRES   REMARKS
PUEBLO         FAIR      34  12  40 CALM      30.07F
LA JUNTA       FAIR      35  11  36 W6        30.05F WCI  30
LAMAR          FAIR      33  11  39 SW10      30.01F WCI  25
SPRINGFIELD      N/A     37  12  35 W3        30.04F
$$




USA.gov is the U.S. government's official web portal to all federal, state and local government web resources and services.